Time,TemperatureF,DewpointF,PressureIn,WindDirection,WindDirectionDegrees,WindSpeedMPH,WindSpeedGustMPH,Humidity,HourlyPrecipIn,Conditions,Clouds,dailyrainin,SolarRadiationWatts/m^2,UVIndex,SoftwareType,DateUTC
2026-05-06 00:04:58,64.8,56.7,30.03,SSW,194,7.2,15,75,0.00,,,0.00,0,0,n/a,2026-05-06T04:04:58Z
2026-05-06 00:09:56,64.7,56.6,30.03,South,189,6.2,11.5,75,0.00,,,0.00,0,0,n/a,2026-05-06T04:09:56Z
2026-05-06 00:14:59,64.6,56.5,30.03,SSW,194,4.1,8.1,75,0.00,,,0.00,0,0,n/a,2026-05-06T04:14:59Z
2026-05-06 00:19:59,64.3,56.5,30.02,SSW,202,4.4,9.6,75.8,0.00,,,0.00,0,0,n/a,2026-05-06T04:19:59Z
2026-05-06 00:24:58,64.3,56.6,30.02,SSW,205,6.4,13.2,76,0.00,,,0.00,0,0,n/a,2026-05-06T04:24:58Z
2026-05-06 00:29:57,64.4,56.7,30.02,SSW,196,7.5,12.7,76,0.00,,,0.00,0,0,n/a,2026-05-06T04:29:57Z
2026-05-06 00:34:56,64.3,56.6,30.02,SSW,193,5.5,12,76,0.00,,,0.00,0,0,n/a,2026-05-06T04:34:56Z
2026-05-06 00:39:56,64.2,56.5,30.02,SSW,203,7.7,15,76,0.00,,,0.00,0,0,n/a,2026-05-06T04:39:56Z
2026-05-06 00:44:59,64.3,56.6,30.02,SSW,198,7,16.1,76,0.00,,,0.00,0,0,n/a,2026-05-06T04:44:59Z
2026-05-06 00:49:58,64.2,56.5,30.02,SSW,209,5.4,9.6,76,0.00,,,0.00,0,0,n/a,2026-05-06T04:49:58Z
2026-05-06 00:54:58,64,56.3,30.02,SSW,196,5.8,10.8,76,0.00,,,0.00,0,0,n/a,2026-05-06T04:54:58Z
2026-05-06 00:59:56,63.8,56.2,30.02,SSW,200,5,12,76.1,0.00,,,0.00,0,0,n/a,2026-05-06T04:59:56Z
2026-05-06 01:04:56,63.8,56.4,30.02,SSW,202,5.9,11.5,77,0.00,,,0.00,0,0,n/a,2026-05-06T05:04:56Z
2026-05-06 01:09:56,63.6,56.3,30.02,South,180,3.7,12,77,0.00,,,0.00,0,0,n/a,2026-05-06T05:09:56Z
2026-05-06 01:14:56,63.4,56.1,30.02,South,189,5.7,11.5,77,0.00,,,0.00,0,0,n/a,2026-05-06T05:14:56Z
2026-05-06 01:19:59,63.3,56,30.01,South,185,4.1,8.4,77.2,0.00,,,0.00,0,0,n/a,2026-05-06T05:19:59Z
2026-05-06 01:24:58,63.2,56.1,30.01,South,179,5.2,8.4,77.8,0.00,,,0.00,0,0,n/a,2026-05-06T05:24:58Z
2026-05-06 01:29:57,63,56,30.01,South,191,3.1,7.2,77.8,0.00,,,0.00,0,0,n/a,2026-05-06T05:29:57Z
2026-05-06 01:34:57,62.8,55.8,30.01,South,189,3.4,8.4,78,0.00,,,0.00,0,0,n/a,2026-05-06T05:34:57Z
2026-05-06 01:39:57,62.6,55.8,30.01,SSW,193,3.3,7.2,78.5,0.00,,,0.00,0,0,n/a,2026-05-06T05:39:57Z
2026-05-06 01:44:56,62.4,55.7,30.01,SSW,200,2.4,4.8,78.7,0.00,,,0.00,0,0,n/a,2026-05-06T05:44:56Z
2026-05-06 01:49:59,62.2,55.6,30.01,SSW,192,2.5,4.8,79,0.00,,,0.00,0,0,n/a,2026-05-06T05:49:59Z
2026-05-06 01:54:58,61.9,55.7,30.01,South,187,2.8,4.8,80,0.00,,,0.00,0,0,n/a,2026-05-06T05:54:58Z
2026-05-06 01:59:57,61.7,55.5,30.01,South,184,2.3,4.8,80,0.00,,,0.00,0,0,n/a,2026-05-06T05:59:57Z
2026-05-06 02:04:57,61.5,55.6,30.00,South,178,2.9,4.8,80.8,0.00,,,0.00,0,0,n/a,2026-05-06T06:04:57Z
2026-05-06 02:09:57,61.4,55.5,30.00,South,177,1.8,3.6,81,0.00,,,0.00,0,0,n/a,2026-05-06T06:09:57Z
2026-05-06 02:14:57,61.2,55.3,30.00,South,177,1.2,2.4,81,0.00,,,0.00,0,0,n/a,2026-05-06T06:14:57Z
2026-05-06 02:19:56,61,55.3,30.00,South,186,0.9,2.4,81.6,0.00,,,0.00,0,0,n/a,2026-05-06T06:19:56Z
2026-05-06 02:24:56,60.7,55.2,30.00,South,189,1,2.4,82,0.00,,,0.00,0,0,n/a,2026-05-06T06:24:56Z
2026-05-06 02:29:59,60.5,55.1,30.00,SSE,168,0.5,2.4,82.3,0.00,,,0.00,0,0,n/a,2026-05-06T06:29:59Z
2026-05-06 02:34:57,60.2,55,30.00,South,170,1.3,2.4,83,0.00,,,0.00,0,0,n/a,2026-05-06T06:34:57Z
2026-05-06 02:39:57,59.8,54.7,30.00,SSE,152,1.2,2.4,83.2,0.00,,,0.00,0,0,n/a,2026-05-06T06:39:57Z
2026-05-06 02:44:56,59.5,54.7,30.00,SSE,149,1.8,3.6,83.9,0.00,,,0.00,0,0,n/a,2026-05-06T06:44:56Z
2026-05-06 02:49:59,59.3,54.7,29.99,SSE,156,0.6,2.4,84.8,0.00,,,0.00,0,0,n/a,2026-05-06T06:49:59Z
2026-05-06 02:54:58,59,54.5,29.99,South,173,1.1,2.4,84.8,0.00,,,0.00,0,0,n/a,2026-05-06T06:54:58Z
2026-05-06 02:59:57,58.9,54.6,29.99,South,173,1,2.4,85.7,0.00,,,0.00,0,0,n/a,2026-05-06T06:59:57Z
2026-05-06 03:04:59,58.7,54.5,29.99,SSE,168,1.7,3.6,86,0.00,,,0.00,0,0,n/a,2026-05-06T07:04:59Z
2026-05-06 03:09:59,58.6,54.4,29.99,SSE,162,0.6,2.4,86,0.00,,,0.00,0,0,n/a,2026-05-06T07:09:59Z
2026-05-06 03:14:59,58.5,54.3,29.99,SSE,161,0,1.2,86,0.00,,,0.00,0,0,n/a,2026-05-06T07:14:59Z
2026-05-06 03:19:58,58.3,54.1,29.99,SSE,161,0.1,1.2,86,0.00,,,0.00,0,0,n/a,2026-05-06T07:19:58Z
2026-05-06 03:24:57,58.1,53.9,29.99,SSE,161,0,1.2,86,0.00,,,0.00,0,0,n/a,2026-05-06T07:24:57Z
2026-05-06 03:29:56,57.8,53.9,29.99,SSE,152,1,2.4,86.7,0.00,,,0.00,0,0,n/a,2026-05-06T07:29:56Z
2026-05-06 03:34:56,57.5,53.7,29.99,SE,146,0.4,2.3,87,0.00,,,0.00,0,0,n/a,2026-05-06T07:34:56Z
2026-05-06 03:39:56,57.3,53.5,29.99,SE,146,0,1.2,87.3,0.00,,,0.00,0,0,n/a,2026-05-06T07:39:56Z
2026-05-06 03:44:59,57.1,53.6,29.99,SE,146,0.5,1.2,88,0.00,,,0.00,0,0,n/a,2026-05-06T07:44:59Z
2026-05-06 03:49:58,56.9,53.5,29.99,SE,146,0.5,1.2,88.3,0.00,,,0.00,0,0,n/a,2026-05-06T07:49:58Z
2026-05-06 03:54:57,56.7,53.5,29.99,SSE,150,1,2.4,89,0.00,,,0.00,0,0,n/a,2026-05-06T07:54:57Z
2026-05-06 03:59:56,56.7,53.5,29.99,SSE,165,1,3.6,89.2,0.00,,,0.00,0,0,n/a,2026-05-06T07:59:56Z
2026-05-06 04:04:57,56.8,53.9,29.99,South,190,0.9,3.6,90,0.00,,,0.00,0,0,n/a,2026-05-06T08:04:57Z
2026-05-06 04:09:58,57,54.2,29.99,SSE,168,1.5,3.6,90.5,0.00,,,0.00,0,0,n/a,2026-05-06T08:09:58Z
2026-05-06 04:14:57,57.1,54.5,29.99,South,182,1.8,3.6,90.8,0.00,,,0.00,0,0,n/a,2026-05-06T08:14:57Z
2026-05-06 04:19:56,57.3,54.7,29.99,SSW,192,0.7,2.4,91,0.00,,,0.00,0,0,n/a,2026-05-06T08:19:56Z
2026-05-06 04:24:58,57.3,54.6,29.99,SSW,193,0.2,1.2,90.7,0.00,,,0.00,0,0,n/a,2026-05-06T08:24:58Z
2026-05-06 04:29:57,57.3,54.7,29.99,South,188,1.3,3.6,91,0.00,,,0.00,0,0,n/a,2026-05-06T08:29:57Z
2026-05-06 04:34:56,57.4,54.8,29.99,South,187,1.1,2.4,91,0.00,,,0.00,0,0,n/a,2026-05-06T08:34:56Z
2026-05-06 04:39:56,57.5,54.9,29.99,South,186,1,2.4,91,0.00,,,0.00,0,0,n/a,2026-05-06T08:39:56Z
2026-05-06 04:44:59,57.5,54.8,29.99,SSW,208,1,2.4,90.5,0.00,,,0.00,0,0,n/a,2026-05-06T08:44:59Z
2026-05-06 04:49:58,57.7,55.1,29.99,SSW,213,1.6,2.4,91,0.00,,,0.00,0,0,n/a,2026-05-06T08:49:58Z
2026-05-06 04:54:56,57.9,55.3,29.99,SSW,204,2,4.8,90.8,0.00,,,0.00,0,0,n/a,2026-05-06T08:54:56Z
2026-05-06 04:59:59,58.1,55.3,29.99,SSW,192,1.9,3.6,90.4,0.00,,,0.00,0,0,n/a,2026-05-06T08:59:59Z
2026-05-06 05:04:59,58.3,55.4,29.99,SSW,194,2.3,4.8,90,0.00,,,0.00,0,0,n/a,2026-05-06T09:04:59Z
2026-05-06 05:09:59,58.5,55.6,29.99,South,190,2.4,4.8,90,0.00,,,0.00,0,0,n/a,2026-05-06T09:09:59Z
2026-05-06 05:14:59,58.7,55.6,29.99,SW,219,2.5,4.8,89.6,0.00,,,0.00,0,0,n/a,2026-05-06T09:14:59Z
2026-05-06 05:19:57,58.8,55.6,29.99,SSW,204,2.6,4.8,89,0.00,,,0.00,0,0,n/a,2026-05-06T09:19:57Z
2026-05-06 05:24:56,58.9,55.7,29.99,SSW,202,1.6,3.6,89,0.00,,,0.00,0,0,n/a,2026-05-06T09:24:56Z
2026-05-06 05:29:59,58.9,55.7,29.99,SSW,210,2.2,3.6,89,0.00,,,0.00,0,0,n/a,2026-05-06T09:29:59Z
2026-05-06 05:34:58,58.9,55.7,29.99,SW,216,1.1,2.4,89,0.00,,,0.00,0,0,n/a,2026-05-06T09:34:58Z
2026-05-06 05:39:57,58.9,55.7,29.99,SSW,211,0.7,1.2,89,0.00,,,0.00,0,0,n/a,2026-05-06T09:39:57Z
2026-05-06 05:44:59,58.7,55.4,29.99,SSW,207,0.4,2.4,88.7,0.00,,,0.00,0,0,n/a,2026-05-06T09:44:59Z
2026-05-06 05:49:58,58.7,55.5,29.99,WSW,248,0.4,2.4,89,0.00,,,0.00,0,0,n/a,2026-05-06T09:49:58Z
2026-05-06 05:54:57,58.6,55.4,29.99,WSW,244,0.5,1.2,89,0.00,,,0.00,0,0,n/a,2026-05-06T09:54:57Z
2026-05-06 05:59:56,58.4,55.2,29.99,SSW,209,1.1,3.6,89,0.00,,,0.00,0,0,n/a,2026-05-06T09:59:56Z
2026-05-06 06:04:56,58.2,55,29.99,SSW,204,2.1,3.6,89,0.00,,,0.00,0,0,n/a,2026-05-06T10:04:56Z
2026-05-06 06:09:57,58,55,29.99,SSW,197,1.8,4.8,89.6,0.00,,,0.00,0,0,n/a,2026-05-06T10:09:57Z
2026-05-06 06:14:57,57.9,55,29.99,South,186,2.1,4.8,90,0.00,,,0.00,0,0,n/a,2026-05-06T10:14:57Z
2026-05-06 06:19:56,58,55.3,29.98,SSW,199,2.3,4.6,90.9,0.00,,,0.00,0,0,n/a,2026-05-06T10:19:56Z
2026-05-06 06:24:59,58.1,55.5,29.98,SSW,207,1,2.4,91,0.00,,,0.00,5,0,n/a,2026-05-06T10:24:59Z
2026-05-06 06:29:58,58.1,55.5,29.99,South,177,1.4,3.6,91,0.00,,,0.00,7,0,n/a,2026-05-06T10:29:58Z
2026-05-06 06:34:56,58.1,55.5,29.99,South,171,1.5,4.8,91,0.00,,,0.00,11,0,n/a,2026-05-06T10:34:56Z
2026-05-06 06:39:56,58.1,55.5,29.99,SSE,155,2.5,4.8,91,0.00,,,0.00,14,0,n/a,2026-05-06T10:39:56Z
2026-05-06 06:44:57,58.2,55.6,29.99,South,169,2.7,4.8,91,0.00,,,0.00,23,0,n/a,2026-05-06T10:44:57Z
2026-05-06 06:49:59,58.4,55.8,29.98,SSE,162,1.4,3.6,91,0.00,,,0.00,35,0,n/a,2026-05-06T10:49:59Z
2026-05-06 06:54:56,58.6,56,29.98,SSE,160,2.7,4.8,91,0.00,,,0.00,37,0,n/a,2026-05-06T10:54:56Z
2026-05-06 06:59:57,58.9,56.2,29.98,SSE,155,2.7,4.8,90.7,0.00,,,0.00,39,0,n/a,2026-05-06T10:59:57Z
2026-05-06 07:04:57,59.1,56.2,29.98,SSE,159,2,3.6,90,0.00,,,0.00,35,0,n/a,2026-05-06T11:04:57Z
2026-05-06 07:09:57,59.3,56.4,29.98,South,182,1.8,3.6,90,0.00,,,0.00,21,0,n/a,2026-05-06T11:09:57Z
2026-05-06 07:14:59,59.4,56.5,29.98,SSE,158,2.1,3.6,90,0.00,,,0.00,25,0,n/a,2026-05-06T11:14:59Z
2026-05-06 07:19:56,59.5,56.6,29.98,SSE,159,2,3.6,90,0.00,,,0.00,32,0,n/a,2026-05-06T11:19:56Z
2026-05-06 07:24:56,59.7,56.8,29.98,SSE,158,2.1,3.6,90,0.00,,,0.00,39,0,n/a,2026-05-06T11:24:56Z
2026-05-06 07:29:57,59.9,57,29.99,SSE,155,2,4.8,90,0.00,,,0.00,60,0,n/a,2026-05-06T11:29:57Z
2026-05-06 07:34:58,60.1,56.8,29.99,SSE,154,1.7,3.6,89.2,0.00,,,0.00,60,0,n/a,2026-05-06T11:34:58Z
2026-05-06 07:39:56,60.3,57,29.99,SSE,161,2.1,3.6,89,0.00,,,0.00,98,0,n/a,2026-05-06T11:39:56Z
2026-05-06 07:44:57,60.5,57.2,29.99,SSE,157,2.7,4.8,89,0.00,,,0.00,118,0,n/a,2026-05-06T11:44:57Z
2026-05-06 07:49:59,61,57.7,29.99,SSE,168,2.3,3.6,89,0.00,,,0.00,190,0.5,n/a,2026-05-06T11:49:59Z
2026-05-06 07:54:56,61.6,58.1,29.99,SSE,166,3.4,6,88.2,0.00,,,0.00,290,0.6,n/a,2026-05-06T11:54:56Z
2026-05-06 07:59:58,62.4,58.5,29.99,South,176,3.9,7.2,87.2,0.00,,,0.00,290,0.6,n/a,2026-05-06T11:59:58Z
2026-05-06 08:04:58,62.8,58.5,29.98,South,184,4.8,7.2,85.8,0.00,,,0.00,271,0.6,n/a,2026-05-06T12:04:58Z
2026-05-06 08:09:58,63.2,58.6,29.98,SSW,194,4.9,10.8,85.2,0.00,,,0.00,188,0.6,n/a,2026-05-06T12:09:58Z
2026-05-06 08:14:57,63.5,58.8,29.98,SSW,203,4.7,9.6,84.7,0.00,,,0.00,135,0.6,n/a,2026-05-06T12:14:57Z
2026-05-06 08:19:58,63.8,58.9,29.98,SSW,197,4.5,8.4,84,0.00,,,0.00,139,0.7,n/a,2026-05-06T12:19:58Z
2026-05-06 08:24:58,64.3,59,29.98,SSW,208,6,13.2,83,0.00,,,0.00,141,0.7,n/a,2026-05-06T12:24:58Z
2026-05-06 08:29:59,64.8,59,29.99,SSW,208,5.8,13.2,81.4,0.00,,,0.00,146,0.8,n/a,2026-05-06T12:29:59Z
2026-05-06 08:34:57,65.3,59.1,29.99,SW,224,5.4,12,80.4,0.00,,,0.00,172,0.9,n/a,2026-05-06T12:34:57Z
2026-05-06 08:39:57,65.8,59.1,29.99,SSW,206,7.4,15,78.9,0.00,,,0.00,176,0.9,n/a,2026-05-06T12:39:57Z
2026-05-06 08:44:58,66.3,59.1,29.99,SSW,200,8.8,18.4,77.9,0.00,,,0.00,176,1,n/a,2026-05-06T12:44:58Z
2026-05-06 08:49:56,66.5,59.1,29.99,SW,214,8,18.4,77,0.00,,,0.00,202,1.2,n/a,2026-05-06T12:49:56Z
2026-05-06 08:54:58,66.7,59.2,29.99,SSW,213,6.9,18.4,76.7,0.00,,,0.00,276,1.3,n/a,2026-05-06T12:54:58Z
2026-05-06 08:59:56,67.1,59.4,29.99,SSW,210,4.5,13.2,76.3,0.00,,,0.00,371,1.7,n/a,2026-05-06T12:59:56Z
2026-05-06 09:04:56,67.7,59.7,29.99,SSW,211,6.7,15,75.4,0.00,,,0.00,381,1.6,n/a,2026-05-06T13:04:56Z
2026-05-06 09:09:56,68.1,59.6,29.99,SW,218,5.7,12,74.3,0.00,,,0.00,246,1.4,n/a,2026-05-06T13:09:56Z
2026-05-06 09:14:59,68.4,59.6,30.00,SSW,208,4.9,10.8,73.6,0.00,,,0.00,255,1.4,n/a,2026-05-06T13:14:59Z
2026-05-06 09:19:57,68.6,59.8,30.00,SW,225,5.7,12,73.4,0.00,,,0.00,218,1.4,n/a,2026-05-06T13:19:57Z
2026-05-06 09:24:58,68.7,59.2,30.00,SW,221,6.4,16.1,71.9,0.00,,,0.00,209,1.3,n/a,2026-05-06T13:24:58Z
2026-05-06 09:29:56,68.7,59,30.01,SW,225,6.2,15,71.4,0.00,,,0.00,188,1.2,n/a,2026-05-06T13:29:56Z
2026-05-06 09:34:58,68.6,59.1,30.01,SW,234,5.8,15,71.7,0.00,,,0.00,165,1.1,n/a,2026-05-06T13:34:58Z
2026-05-06 09:39:57,68.7,59.1,30.01,SW,220,5.7,15,71.6,0.00,,,0.00,162,1.3,n/a,2026-05-06T13:39:57Z
2026-05-06 09:44:56,68.7,58.9,30.01,SW,223,6.5,16.1,71,0.00,,,0.00,185,1.4,n/a,2026-05-06T13:44:56Z
2026-05-06 09:49:58,68.7,59,30.01,SSW,213,6.5,16.1,71.2,0.00,,,0.00,295,2.1,n/a,2026-05-06T13:49:58Z
2026-05-06 09:54:59,69,59.4,30.01,SW,219,5.9,12,71.4,0.00,,,0.00,350,2.4,n/a,2026-05-06T13:54:59Z
2026-05-06 09:59:57,69.5,59.8,30.01,SSW,209,4.6,9.6,71.2,0.00,,,0.00,410,2.7,n/a,2026-05-06T13:59:57Z
2026-05-06 10:04:57,70.1,60,30.00,SSW,212,7.3,18,70.2,0.00,,,0.00,487,3,n/a,2026-05-06T14:04:57Z
2026-05-06 10:09:57,70.6,59.7,30.00,SW,229,6.7,18.4,68.5,0.00,,,0.00,459,3,n/a,2026-05-06T14:09:57Z
2026-05-06 10:14:59,70.7,59.6,30.00,SW,218,7,15,67.9,0.00,,,0.00,276,2.1,n/a,2026-05-06T14:14:59Z
2026-05-06 10:19:57,70.6,58.9,30.00,SW,218,9.7,20.7,66.6,0.00,,,0.00,236,1.9,n/a,2026-05-06T14:19:57Z
2026-05-06 10:24:59,70.4,58.6,30.00,SW,214,8.9,24.2,66.3,0.00,,,0.00,281,2.2,n/a,2026-05-06T14:24:59Z